When you browse on this site, cookies collect data to enhance your experience and personalize the content and advertising you see.
Visit our Privacy Policy to learn more. By continuing to use the site, you agree to this use of cookies and data.
  • In Latvia
  • List of Countries
  • For 7 days
  • Water Temperature
  • Weather Map
  • Weather Widgets
  • user-avatar
    Login

    Hourly Weather Santiago del Estero

    Today, 1 June, Monday

    Time Temperature Precipitation Wind Pressure Humidity
    00:00 +12°C° 0 mm 0 mps 750 mmHg 46%
    01:00 +12°C° 0 mm 0 mps 750 mmHg 47%
    02:00 +12°C° 0 mm 0 mps 750 mmHg 48%
    03:00 +12°C° 0 mm 0 mps 750 mmHg 48%
    04:00 +12°C° 0 mm 0 mps 750 mmHg 47%
    05:00 +13°C° 0 mm 1 mps 750 mmHg 47%
    06:00 +13°C° 0 mm 1 mps 750 mmHg 47%
    07:00 +13°C° 0 mm 1 mps 750 mmHg 47%
    08:00 +13°C° 0 mm 1 mps 750 mmHg 47%
    09:00 +14°C° 0 mm 1 mps 750 mmHg 42%
    10:00 +16°C° 0 mm 1 mps 750 mmHg 38%
    11:00 +18°C° 0 mm 1 mps 750 mmHg 33%
    12:00 +17°C° 0 mm 2 mps 750 mmHg 30%
    13:00 +18°C° 0 mm 2 mps 749 mmHg 28%
    14:00 +19°C° 0 mm 2 mps 748 mmHg 25%
    15:00 +18°C° 0 mm 2 mps 748 mmHg 28%
    16:00 +17°C° 0 mm 2 mps 748 mmHg 31%
    17:00 +17°C° 0 mm 3 mps 748 mmHg 34%
    18:00 +14°C° 0 mm 3 mps 748 mmHg 36%
    19:00 +12°C° 0 mm 3 mps 748 mmHg 38%
    20:00 +11°C° 0 mm 3 mps 749 mmHg 41%
    21:00 +10°C° 0 mm 3 mps 749 mmHg 43%
    22:00 +10°C° 0 mm 3 mps 749 mmHg 45%
    23:00 +9°C° 0 mm 2 mps 749 mmHg 48%

    Tomorrow, 2 June, Tuesday

    Time Temperature Precipitation Wind Pressure Humidity
    00:00 +8°C° 0 mm 2 mps 749 mmHg 49%
    01:00 +8°C° 0 mm 2 mps 748 mmHg 51%
    02:00 +7°C° 0 mm 2 mps 748 mmHg 52%
    03:00 +7°C° 0 mm 2 mps 748 mmHg 53%
    04:00 +7°C° 0 mm 2 mps 747 mmHg 54%
    05:00 +6°C° 0 mm 2 mps 747 mmHg 56%
    06:00 +7°C° 0 mm 2 mps 747 mmHg 55%
    07:00 +8°C° 0 mm 2 mps 747 mmHg 54%
    08:00 +8°C° 0 mm 2 mps 748 mmHg 53%
    09:00 +11°C° 0 mm 3 mps 747 mmHg 47%
    10:00 +13°C° 0 mm 3 mps 747 mmHg 41%
    11:00 +17°C° 0 mm 3 mps 747 mmHg 35%
    12:00 +18°C° 0 mm 4 mps 746 mmHg 33%
    13:00 +19°C° 0 mm 4 mps 745 mmHg 32%
    14:00 +21°C° 0 mm 4 mps 744 mmHg 30%
    15:00 +20°C° 0 mm 4 mps 743 mmHg 32%
    16:00 +19°C° 0 mm 3 mps 743 mmHg 35%
    17:00 +19°C° 0 mm 3 mps 742 mmHg 38%
    18:00 +17°C° 0 mm 3 mps 742 mmHg 40%
    19:00 +14°C° 0 mm 3 mps 742 mmHg 43%
    20:00 +13°C° 0 mm 3 mps 742 mmHg 46%
    21:00 +12°C° 0 mm 4 mps 742 mmHg 48%
    22:00 +12°C° 0 mm 4 mps 742 mmHg 50%
    23:00 +11°C° 0 mm 4 mps 742 mmHg 51%

    Day after tomorrow, 3 June, Wednesday

    Time Temperature Precipitation Wind Pressure Humidity
    00:00 +11°C° 0 mm 4 mps 742 mmHg 54%
    01:00 +10°C° 0 mm 4 mps 742 mmHg 56%
    02:00 +10°C° 0 mm 4 mps 741 mmHg 58%
    03:00 +8°C° 0 mm 4 mps 741 mmHg 61%
    04:00 +9°C° 0 mm 3 mps 741 mmHg 63%
    05:00 +9°C° 0 mm 3 mps 741 mmHg 65%
    06:00 +8°C° 0 mm 4 mps 741 mmHg 65%
    07:00 +8°C° 0 mm 4 mps 741 mmHg 65%
    08:00 +10°C° 0 mm 4 mps 742 mmHg 65%
    09:00 +12°C° 0 mm 5 mps 742 mmHg 59%
    10:00 +15°C° 0 mm 6 mps 742 mmHg 53%
    11:00 +18°C° 0 mm 7 mps 742 mmHg 47%
    12:00 +20°C° 0 mm 7 mps 741 mmHg 45%
    13:00 +21°C° 0 mm 6 mps 741 mmHg 43%
    14:00 +23°C° 0 mm 6 mps 741 mmHg 41%
    15:00 +22°C° 0 mm 5 mps 741 mmHg 43%
    16:00 +21°C° 0 mm 5 mps 741 mmHg 46%
    17:00 +21°C° 0 mm 4 mps 741 mmHg 48%
    18:00 +19°C° 0 mm 4 mps 742 mmHg 50%
    19:00 +18°C° 0 mm 4 mps 743 mmHg 52%
    20:00 +17°C° 0 mm 4 mps 744 mmHg 55%
    21:00 +15°C° 0.1 mm 4 mps 744 mmHg 62%
    22:00 +14°C° 0.1 mm 3 mps 745 mmHg 70%
    23:00 +13°C° 0.1 mm 3 mps 746 mmHg 77%

    4 June, Thursday

    Time Temperature Precipitation Wind Pressure Humidity
    00:00 +13°C° 0.5 mm 4 mps 746 mmHg 81%
    01:00 +12°C° 0.5 mm 4 mps 746 mmHg 84%
    02:00 +12°C° 0.5 mm 4 mps 746 mmHg 88%
    03:00 +12°C° 0.4 mm 4 mps 746 mmHg 89%
    04:00 +12°C° 0.4 mm 4 mps 746 mmHg 89%
    05:00 +11°C° 0.4 mm 4 mps 746 mmHg 90%
    06:00 +11°C° 0.3 mm 4 mps 747 mmHg 90%
    07:00 +10°C° 0.3 mm 5 mps 747 mmHg 91%
    08:00 +10°C° 0.3 mm 5 mps 747 mmHg 91%
    09:00 +10°C° 0.2 mm 5 mps 747 mmHg 90%
    10:00 +10°C° 0.2 mm 5 mps 747 mmHg 89%
    11:00 +12°C° 0.2 mm 5 mps 747 mmHg 88%
    12:00 +10°C° 0.2 mm 5 mps 747 mmHg 87%
    13:00 +10°C° 0.2 mm 5 mps 746 mmHg 87%
    14:00 +10°C° 0.2 mm 5 mps 746 mmHg 87%
    15:00 +10°C° 0.4 mm 6 mps 746 mmHg 87%
    16:00 +10°C° 0.4 mm 6 mps 746 mmHg 87%
    17:00 +10°C° 0.4 mm 6 mps 746 mmHg 88%
    18:00 +10°C° 1.2 mm 6 mps 746 mmHg 87%
    19:00 +10°C° 1.2 mm 6 mps 747 mmHg 87%
    20:00 +10°C° 1.2 mm 6 mps 747 mmHg 86%
    21:00 +10°C° 0.3 mm 5 mps 747 mmHg 86%
    22:00 +10°C° 0.3 mm 5 mps 747 mmHg 86%
    23:00 +10°C° 0.3 mm 4 mps 747 mmHg 87%

    5 June, Friday

    Time Temperature Precipitation Wind Pressure Humidity
    00:00 +10°C° 0 mm 4 mps 747 mmHg 87%
    01:00 +10°C° 0 mm 4 mps 747 mmHg 86%
    02:00 +8°C° 0 mm 4 mps 747 mmHg 86%
    03:00 +8°C° 0 mm 4 mps 746 mmHg 87%
    04:00 +9°C° 0 mm 3 mps 746 mmHg 88%
    05:00 +8°C° 0 mm 3 mps 746 mmHg 88%
    06:00 +8°C° 0 mm 3 mps 746 mmHg 86%
    07:00 +9°C° 0 mm 3 mps 746 mmHg 84%
    08:00 +9°C° 0 mm 3 mps 747 mmHg 82%
    09:00 +11°C° 0 mm 3 mps 747 mmHg 71%
    10:00 +13°C° 0 mm 4 mps 747 mmHg 61%
    11:00 +17°C° 0 mm 4 mps 747 mmHg 50%
    12:00 +18°C° 0 mm 3 mps 746 mmHg 46%
    13:00 +19°C° 0 mm 3 mps 745 mmHg 41%
    14:00 +20°C° 0 mm 3 mps 744 mmHg 36%
    15:00 +19°C° 0 mm 2 mps 744 mmHg 40%
    16:00 +19°C° 0 mm 1 mps 744 mmHg 44%
    17:00 +16°C° 0 mm 0 mps 744 mmHg 48%
    18:00 +15°C° 0 mm 0 mps 744 mmHg 51%
    19:00 +13°C° 0 mm 0 mps 744 mmHg 53%
    20:00 +12°C° 0 mm 0 mps 745 mmHg 55%
    21:00 +12°C° 0 mm 0 mps 745 mmHg 56%
    22:00 +11°C° 0 mm 0 mps 745 mmHg 58%
    23:00 +11°C° 0 mm 0 mps 745 mmHg 59%

    6 June, Saturday

    Time Temperature Precipitation Wind Pressure Humidity
    00:00 +12°C° 0 mm 1 mps 745 mmHg 60%
    01:00 +11°C° 0 mm 1 mps 744 mmHg 61%
    02:00 +10°C° 0 mm 2 mps 744 mmHg 61%
    03:00 +11°C° 0 mm 1 mps 744 mmHg 64%
    04:00 +10°C° 0 mm 1 mps 744 mmHg 67%
    05:00 +9°C° 0 mm 1 mps 744 mmHg 70%
    06:00 +10°C° 0 mm 1 mps 744 mmHg 68%
    07:00 +10°C° 0 mm 2 mps 744 mmHg 66%
    08:00 +10°C° 0 mm 2 mps 744 mmHg 64%
    09:00 +12°C° 0 mm 3 mps 744 mmHg 57%
    10:00 +16°C° 0 mm 3 mps 743 mmHg 50%
    11:00 +18°C° 0 mm 4 mps 743 mmHg 43%
    12:00 +19°C° 0 mm 4 mps 742 mmHg 41%
    13:00 +20°C° 0 mm 4 mps 741 mmHg 38%
    14:00 +22°C° 0 mm 4 mps 740 mmHg 35%
    15:00 +21°C° 0 mm 4 mps 740 mmHg 38%
    16:00 +20°C° 0 mm 3 mps 740 mmHg 40%
    17:00 +20°C° 0 mm 2 mps 739 mmHg 43%
    18:00 +18°C° 0 mm 2 mps 740 mmHg 45%
    19:00 +17°C° 0 mm 2 mps 740 mmHg 48%
    20:00 +16°C° 0 mm 2 mps 740 mmHg 50%
    21:00 +15°C° 0 mm 2 mps 740 mmHg 54%
    22:00 +15°C° 0 mm 2 mps 740 mmHg 57%
    23:00 +14°C° 0 mm 2 mps 740 mmHg 60%
    Show more